Location: Unnamed
(42.1164°N, 2.7652°E)
Time: 03:44:43
(UTC+02:00)

X-37B - Visible Passes

Search period start: 01 August 2021 00:00
Search period end: 11 August 2021 00:00
Orbit: 383 x 392 km, 45.0° (Epoch: 01 July)

Date Brightness Start Highest point End Pass type
(mag) Time Alt. Az. Time Alt. Az. Time Alt. Az.
01 Aug 1.5 05:31:15 19° SSW 05:33:03 36° SSE 05:36:02 10° E visible
02 Aug 2.6 04:35:26 20° SE 04:35:26 20° SE 04:37:21 10° E visible
02 Aug 0.6 06:08:01 10° WSW 06:11:13 84° NNW 06:14:26 10° ENE visible
03 Aug 0.7 05:11:51 38° SW 05:12:51 63° SSE 05:16:02 10° ENE visible
04 Aug 2.6 04:15:58 23° E 04:15:58 23° E 04:17:33 10° E visible
04 Aug 1.0 05:48:15 12° W 05:51:09 60° NNW 05:54:19 10° ENE visible
05 Aug 0.5 04:52:22 67° W 04:52:44 83° NNW 04:55:56 10° ENE visible
06 Aug 3.1 03:56:29 19° ENE 03:56:29 19° ENE 03:57:33 10° ENE visible
06 Aug 1.3 05:28:46 16° WNW 05:31:07 49° N 05:34:14 10° ENE visible
07 Aug 1.1 04:32:54 57° NNE 04:32:54 57° NNE 04:35:51 10° ENE visible
07 Aug 1.4 06:06:26 10° WNW 06:09:34 50° N 06:12:41 10° E visible
08 Aug 3.7 03:37:05 13° ENE 03:37:05 13° ENE 03:37:27 10° ENE visible
08 Aug 1.5 05:09:22 22° WNW 05:11:07 46° N 05:14:12 10° ENE visible
09 Aug 2.3 04:13:38 34° NE 04:13:38 34° NE 04:15:46 10° ENE visible
09 Aug 1.0 05:46:21 10° WNW 05:49:31 62° NNE 05:52:42 10° E visible
10 Aug 1.4 04:50:18 39° NW 04:51:05 50° N 04:54:12 10° E visible
